CW5882 Weather Reports


Display with metric or nautical units.
time (UTC)temp
F
wind
direction
speed
MPH
gust
MPH
rain 1hr
in
rain 24hr
in
rain mn
in
humidity
%
barometer
mb
20260504022241 50 0.0 1.0 0.00 0.00 0.00 56 1014.9
20260504021319 50 0.0 1.0 0.00 0.00 0.00 55 1014.9
20260504020255 51 0.0 1.0 0.00 0.00 0.00 55 1015.2
20260504015239 51 230 1.0 2.0 0.00 0.00 0.00 55 1015.1
20260504014221 50 0.0 1.0 0.00 0.00 0.00 55 1014.8
20260504013310 51 172 0.0 2.0 0.00 0.00 0.00 54 1014.8
20260504012256 51 171 0.0 1.0 0.00 0.00 0.00 54 1014.7
20260504011231 51 0.0 1.0 0.00 0.00 0.00 54 1014.7
20260504010319 51 190 0.0 1.0 0.00 0.00 0.00 55 1014.9
20260504005317 51 0.0 0.0 0.00 0.00 0.00 54 1014.8
20260504004240 52 0.0 1.0 0.00 0.00 0.00 53 1014.5
20260504003227 52 163 0.0 1.0 0.00 0.00 0.00 52 1014.7
20260504002336 52 202 1.0 2.0 0.00 0.00 0.00 52 1014.5
20260504001303 53 161 0.0 1.0 0.00 0.00 0.00 52 1014.6
20260504000248 53 0.0 0.0 0.00 0.00 0.00 51 1014.3
20260503235234 54 156 1.0 2.0 0.00 0.00 0.00 48 1014.5
20260503234219 55 148 1.0 3.0 0.00 0.00 0.00 47 1014.4
20260503233308 55 147 0.0 1.0 0.00 0.00 0.00 48 1014.5
20260503232255 56 0.0 2.0 0.00 0.00 0.00 46 1014.4
20260503231239 56 175 2.0 3.0 0.00 0.00 0.00 46 1014.6
20260503230242 56 220 1.0 3.0 0.00 0.00 0.00 47 1014.3
20260503225310 56 176 0.0 2.0 0.00 0.00 0.00 46 1014.8
20260503224258 56 235 0.0 2.0 0.00 0.00 0.00 45 1014.8
20260503223232 57 240 2.0 3.0 0.00 0.00 0.00 43 1014.6
20260503222215 57 258 2.0 4.0 0.00 0.00 0.00 43 1014.7
20260503221304 57 166 2.0 8.0 0.00 0.00 0.00 43 1014.6
20260503220246 58 168 1.0 8.0 0.00 0.00 0.00 44 1014.6
20260503215232 58 227 0.0 9.0 0.00 0.00 0.00 42 1014.4
20260503214237 60 308 2.0 4.0 0.00 0.00 0.00 40 1014.9
20260503213254 58 265 1.0 3.0 0.00 0.00 0.00 44 1014.6
20260503212239 58 169 3.0 9.0 0.00 0.00 0.00 41 1014.8
20260503211225 57 241 1.0 7.0 0.00 0.00 0.00 42 1014.9
20260503210311 58 324 2.0 4.0 0.00 0.00 0.00 42 1015.1
20260503205252 60 222 1.0 4.0 0.00 0.00 0.00 41 1014.6
20260503204230 57 336 1.0 4.0 0.00 0.00 0.00 43 1014.8
20260503202249 58 180 1.0 3.0 0.00 0.00 0.00 43 1015.0
20260503201236 57 222 1.0 6.0 0.00 0.00 0.00 43 1015.2
20260503200335 59 312 3.0 7.0 0.00 0.00 0.00 42 1015.3
20260503195248 60 140 0.0 4.0 0.00 0.00 0.00 43 1015.3
20260503194236 58 218 1.0 3.0 0.00 0.00 0.00 44 1015.6
20260503193220 59 188 2.0 6.0 0.00 0.00 0.00 42 1015.9
20260503192255 57 159 2.0 4.0 0.00 0.00 0.00 44 1016.0
20260503191232 58 205 2.0 7.0 0.00 0.00 0.00 43 1015.9
20260503190218 57 219 2.0 3.0 0.00 0.00 0.00 44 1016.2
20260503185305 57 324 0.0 4.0 0.00 0.00 0.00 43 1016.0
20260503184254 58 309 3.0 9.0 0.00 0.00 0.00 42 1016.3
20260503183227 57 242 2.0 7.0 0.00 0.00 0.00 45 1016.5
20260503182215 58 324 2.0 8.0 0.00 0.00 0.00 44 1016.6
20260503181303 56 0.0 2.0 0.00 0.00 0.00 45 1016.6
20260503180250 57 298 2.0 6.0 0.00 0.00 0.00 42 1016.7
20260503175311 56 175 4.0 8.0 0.00 0.00 0.00 44 1017.1
20260503174217 57 321 4.0 15.0 0.00 0.00 0.00 43 1016.7
20260503173312 56 171 2.0 4.0 0.00 0.00 0.00 45 1016.8
20260503172238 56 187 3.0 7.0 0.00 0.00 0.00 44 1017.3
20260503171340 55 185 1.0 4.0 0.00 0.00 0.00 43 1017.0
20260503170303 55 235 2.0 7.0 0.00 0.00 0.00 43 1017.4
20260503150316 50 10 1.0 3.0 0.00 0.00 0.00 51 1018.3
20260503140220 49 323 1.0 4.0 0.00 0.00 0.00 58 1018.6
20260503131253 45 207 1.0 3.0 0.00 0.00 0.00 70 1018.5
20260503130239 44 170 2.0 3.0 0.00 0.00 0.00 73 1018.4
20260503110217 31 0.0 0.0 0.00 0.00 0.00 100 1017.5
20260503090310 30 0.0 0.0 0.00 0.00 0.00 98 1017.2
20260503081252 31 0.0 0.0 0.00 0.00 0.00 97 1017.0
20260503080239 31 0.0 0.0 0.00 0.00 0.00 96 1016.7
20260503072232 32 0.0 0.0 0.00 0.00 0.00 94 1016.7
20260503071320 33 0.0 0.0 0.00 0.00 0.00 94 1016.8
20260503070256 33 0.0 0.0 0.00 0.00 0.00 94 1016.7
20260503060329 35 0.0 0.0 0.00 0.00 0.00 90 1016.8
20260503054247 35 0.0 0.0 0.00 0.00 0.00 92 1016.8
20260503053322 36 0.0 0.0 0.00 0.00 0.00 91 1016.8
20260503052249 36 0.0 0.0 0.00 0.00 0.00 91 1017.6
20260503051235 36 0.0 0.0 0.00 0.00 0.00 92 1016.9
20260503050222 36 0.0 0.0 0.00 0.00 0.00 92 1017.0
20260503044235 36 0.0 0.0 0.00 0.00 0.00 89 1017.0
20260503043221 36 0.0 0.0 0.00 0.00 0.00 89 1017.4
20260503042304 36 0.0 0.0 0.00 0.00 0.00 88 1017.6
20260503041248 36 0.0 0.0 0.00 0.00 0.00 88 1017.2
20260503040226 36 0.0 0.0 0.00 0.00 0.00 87 1017.1
20260503035312 36 0.0 0.0 0.00 0.00 0.00 88 1017.3
20260503034259 37 0.0 0.0 0.00 0.00 0.00 86 1017.2
20260503033245 37 0.0 0.0 0.00 0.00 0.00 87 1017.3
20260503032233 38 0.0 0.0 0.00 0.00 0.00 85 1017.6
20260503031312 38 0.0 1.0 0.00 0.00 0.00 83 1017.5
20260503030253 38 0.0 0.0 0.00 0.00 0.00 82 1017.5
20260503025238 38 0.0 0.0 0.00 0.00 0.00 81 1017.5
20260503024226 39 0.0 0.0 0.00 0.00 0.00 80 1017.5
20260503023313 39 0.0 0.0 0.00 0.00 0.00 78 1017.7